Time,TemperatureF,DewpointF,PressureIn,WindDirection,WindDirectionDegrees,WindSpeedMPH,WindSpeedGustMPH,Humidity,HourlyPrecipIn,Conditions,Clouds,dailyrainin,SolarRadiationWatts/m^2,SoftwareType,DateUTC
2013-09-26 00:02:00,72.0,71.1,29.97,NW,315,0.0,0.0,97,0.00,CLR,BKN,0.00,0.0,WeatherDisplay:10.37,2013-09-26 05:02:00,
2013-09-26 00:07:00,71.8,70.9,29.97,NW,315,0.0,0.0,97,0.00,CLR,BKN,0.00,0.0,WeatherDisplay:10.37,2013-09-26 05:07:00,
2013-09-26 00:12:00,71.8,70.9,29.97,NW,315,0.0,0.0,97,0.00,BKN,,0.00,0.0,WeatherDisplay:10.37,2013-09-26 05:12:00,
2013-09-26 00:17:00,71.6,70.7,29.97,North,0,0.0,0.0,97,0.00,BKN,,0.00,0.0,WeatherDisplay:10.37,2013-09-26 05:17:00,
2013-09-26 00:22:00,71.6,70.7,29.97,North,0,0.0,0.0,97,0.00,BKN,,0.00,0.0,WeatherDisplay:10.37,2013-09-26 05:22:00,
2013-09-26 00:27:00,71.6,70.7,29.97,North,0,0.0,0.0,97,0.00,BKN,,0.00,0.0,WeatherDisplay:10.37,2013-09-26 05:27:00,
2013-09-26 00:32:00,71.4,70.5,29.97,North,0,0.0,0.0,97,0.00,BKN,,0.00,0.0,WeatherDisplay:10.37,2013-09-26 05:32:00,
2013-09-26 00:37:00,71.4,70.5,29.97,North,0,0.0,0.0,97,0.00,BKN,,0.00,0.0,WeatherDisplay:10.37,2013-09-26 05:37:00,
2013-09-26 00:42:00,71.4,70.5,29.97,North,0,0.0,0.0,97,0.00,BKN,,0.00,0.0,WeatherDisplay:10.37,2013-09-26 05:42:00,
2013-09-26 00:47:00,71.4,70.5,29.94,North,0,0.0,0.0,97,0.00,BKN,,0.00,0.0,WeatherDisplay:10.37,2013-09-26 05:47:00,
2013-09-26 00:52:00,71.4,70.5,29.94,North,0,0.0,0.0,97,0.00,BKN,,0.00,0.0,WeatherDisplay:10.37,2013-09-26 05:52:00,
2013-09-26 00:57:00,71.2,70.3,29.94,NE,45,0.0,0.0,97,0.00,BKN,,0.00,0.0,WeatherDisplay:10.37,2013-09-26 05:57:00,
2013-09-26 01:02:00,71.1,70.2,29.94,NE,45,0.0,0.0,97,0.00,SCT,BKN,0.00,0.0,WeatherDisplay:10.37,2013-09-26 06:02:00,
2013-09-26 01:07:00,71.1,70.2,29.94,East,90,0.0,0.0,97,0.00,SCT,BKN,0.00,0.0,WeatherDisplay:10.37,2013-09-26 06:07:00,
2013-09-26 01:12:00,71.1,70.2,29.94,East,90,1.2,0.0,97,0.00,SCT,BKN,0.00,0.0,WeatherDisplay:10.37,2013-09-26 06:12:00,
2013-09-26 01:17:00,71.1,70.2,29.94,East,90,0.0,0.0,97,0.00,SCT,BKN,0.00,0.0,WeatherDisplay:10.37,2013-09-26 06:17:00,
2013-09-26 01:22:00,71.1,70.2,29.94,East,90,0.0,0.0,97,0.00,SCT,BKN,0.00,0.0,WeatherDisplay:10.37,2013-09-26 06:22:00,
2013-09-26 01:27:00,71.1,70.2,29.94,East,90,0.0,0.0,97,0.00,SCT,BKN,0.00,0.0,WeatherDisplay:10.37,2013-09-26 06:27:00,
2013-09-26 01:32:00,71.1,70.2,29.94,East,90,0.0,0.0,97,0.00,SCT,BKN,0.00,0.0,WeatherDisplay:10.37,2013-09-26 06:32:00,
2013-09-26 01:37:00,71.1,70.2,29.94,North,0,0.0,0.0,97,0.00,SCT,BKN,0.00,0.0,WeatherDisplay:10.37,2013-09-26 06:37:00,
2013-09-26 01:42:00,71.1,70.2,29.94,West,270,1.2,1.2,97,0.00,SCT,BKN,0.00,0.0,WeatherDisplay:10.37,2013-09-26 06:42:00,
2013-09-26 01:47:00,71.1,70.2,29.97,NNW,338,0.0,0.0,97,0.00,SCT,BKN,0.00,0.0,WeatherDisplay:10.37,2013-09-26 06:47:00,
2013-09-26 01:52:00,71.2,70.3,29.97,NNW,338,0.0,0.0,97,0.00,SCT,BKN,0.00,0.0,WeatherDisplay:10.37,2013-09-26 06:52:00,
2013-09-26 01:57:00,71.2,70.3,29.97,NNW,338,0.0,0.0,97,0.00,SCT,BKN,0.00,0.0,WeatherDisplay:10.37,2013-09-26 06:57:00,
2013-09-26 02:02:00,71.2,70.3,29.97,NNW,338,0.0,0.0,97,0.00,CLR,BKN,0.00,0.0,WeatherDisplay:10.37,2013-09-26 07:02:00,
2013-09-26 02:07:00,71.1,70.2,29.97,NNW,338,0.0,0.0,97,0.00,CLR,BKN,0.00,0.0,WeatherDisplay:10.37,2013-09-26 07:07:00,
2013-09-26 02:12:00,71.1,70.2,29.97,NNW,338,0.0,0.0,97,0.00,CLR,BKN,0.00,0.0,WeatherDisplay:10.37,2013-09-26 07:12:00,
2013-09-26 02:17:00,71.1,70.2,29.97,NNW,338,2.3,2.3,97,0.00,CLR,BKN,0.00,0.0,WeatherDisplay:10.37,2013-09-26 07:17:00,
2013-09-26 02:22:00,71.1,70.2,29.97,North,0,1.2,0.0,97,0.00,CLR,BKN,0.00,0.0,WeatherDisplay:10.37,2013-09-26 07:22:00,
2013-09-26 02:27:00,70.9,70.0,29.97,NW,315,1.2,0.0,97,0.00,CLR,BKN,0.00,0.0,WeatherDisplay:10.37,2013-09-26 07:27:00,
2013-09-26 02:32:00,70.9,70.0,29.97,East,90,0.0,0.0,97,0.00,CLR,BKN,0.00,0.0,WeatherDisplay:10.37,2013-09-26 07:32:00,
2013-09-26 02:37:00,70.7,69.8,29.97,ENE,68,0.0,0.0,97,0.00,CLR,BKN,0.00,0.0,WeatherDisplay:10.37,2013-09-26 07:37:00,
2013-09-26 02:42:00,70.5,69.6,29.97,ENE,68,1.2,0.0,97,0.00,CLR,BKN,0.00,0.0,WeatherDisplay:10.37,2013-09-26 07:42:00,
2013-09-26 02:47:00,70.3,69.4,29.97,ENE,68,0.0,0.0,97,0.00,CLR,BKN,0.00,0.0,WeatherDisplay:10.37,2013-09-26 07:47:00,
2013-09-26 02:52:00,70.2,69.3,29.97,ENE,68,0.0,0.0,97,0.00,CLR,BKN,0.00,0.0,WeatherDisplay:10.37,2013-09-26 07:52:00,
2013-09-26 02:57:00,70.0,69.1,29.97,ENE,68,0.0,0.0,97,0.00,CLR,BKN,0.00,0.0,WeatherDisplay:10.37,2013-09-26 07:57:00,
2013-09-26 03:02:00,69.8,68.9,29.97,NNE,22,0.0,0.0,97,0.00,CLR,BKN,0.00,0.0,WeatherDisplay:10.37,2013-09-26 08:02:00,
2013-09-26 03:07:00,69.6,68.7,29.97,SSE,158,0.0,0.0,97,0.00,CLR,BKN,0.00,0.0,WeatherDisplay:10.37,2013-09-26 08:07:00,
2013-09-26 03:12:00,69.4,68.6,29.97,SSE,158,0.0,0.0,97,0.00,CLR,BKN,0.00,0.0,WeatherDisplay:10.37,2013-09-26 08:12:00,
2013-09-26 03:17:00,69.4,68.6,29.97,West,270,0.0,0.0,97,0.00,CLR,BKN,0.00,0.0,WeatherDisplay:10.37,2013-09-26 08:17:00,
2013-09-26 03:22:00,69.3,68.4,29.97,East,90,0.0,0.0,97,0.00,CLR,BKN,0.00,0.0,WeatherDisplay:10.37,2013-09-26 08:22:00,
2013-09-26 03:27:00,69.1,68.2,29.97,ENE,68,0.0,0.0,97,0.00,CLR,BKN,0.00,0.0,WeatherDisplay:10.37,2013-09-26 08:27:00,
2013-09-26 03:32:00,68.9,68.0,29.97,ENE,68,0.0,0.0,97,0.00,CLR,BKN,0.00,0.0,WeatherDisplay:10.37,2013-09-26 08:32:00,
2013-09-26 03:37:00,68.9,68.0,29.97,ENE,68,0.0,0.0,97,0.00,CLR,BKN,0.00,0.0,WeatherDisplay:10.37,2013-09-26 08:37:00,
2013-09-26 03:42:00,68.7,67.8,29.97,ENE,68,0.0,0.0,97,0.00,CLR,BKN,0.00,0.0,WeatherDisplay:10.37,2013-09-26 08:42:00,
2013-09-26 03:47:00,68.5,67.7,29.97,East,90,0.0,0.0,97,0.00,CLR,BKN,0.00,0.0,WeatherDisplay:10.37,2013-09-26 08:47:00,
2013-09-26 03:52:00,68.5,67.7,29.97,ENE,68,0.0,0.0,97,0.00,CLR,BKN,0.00,0.0,WeatherDisplay:10.37,2013-09-26 08:52:00,
2013-09-26 03:57:00,68.4,67.5,29.97,ENE,68,1.2,0.0,97,0.00,CLR,BKN,0.00,0.0,WeatherDisplay:10.37,2013-09-26 08:57:00,
2013-09-26 04:02:00,68.4,67.5,29.97,East,90,0.0,0.0,97,0.00,CLR,BKN,0.00,0.0,WeatherDisplay:10.37,2013-09-26 09:02:00,
2013-09-26 04:07:00,68.2,67.3,29.97,NE,45,0.0,0.0,97,0.00,CLR,BKN,0.00,0.0,WeatherDisplay:10.37,2013-09-26 09:07:00,
2013-09-26 04:12:00,68.2,67.3,29.97,East,90,0.9,0.0,97,0.00,CLR,BKN,0.00,0.0,WeatherDisplay:10.37,2013-09-26 09:12:00,
2013-09-26 04:17:00,68.0,67.1,29.97,ENE,68,0.0,0.0,97,0.00,CLR,BKN,0.00,0.0,WeatherDisplay:10.37,2013-09-26 09:17:00,
2013-09-26 04:22:00,68.0,67.1,29.97,WNW,292,0.0,0.0,97,0.00,CLR,BKN,0.00,0.0,WeatherDisplay:10.37,2013-09-26 09:22:00,
2013-09-26 04:27:00,67.8,66.9,29.97,SSW,202,0.0,0.0,97,0.00,CLR,BKN,0.00,0.0,WeatherDisplay:10.37,2013-09-26 09:27:00,
2013-09-26 04:32:00,67.8,66.9,29.97,West,270,0.0,0.0,97,0.00,CLR,BKN,0.00,0.0,WeatherDisplay:10.37,2013-09-26 09:32:00,
2013-09-26 04:37:00,67.8,66.9,29.97,ESE,112,0.0,0.0,97,0.00,CLR,BKN,0.00,0.0,WeatherDisplay:10.37,2013-09-26 09:37:00,
2013-09-26 04:42:00,67.6,66.8,29.97,WNW,292,0.0,0.0,97,0.00,CLR,BKN,0.00,0.0,WeatherDisplay:10.37,2013-09-26 09:42:00,
2013-09-26 04:47:00,67.6,66.8,30.00,East,90,0.0,0.0,97,0.00,CLR,BKN,0.00,0.0,WeatherDisplay:10.37,2013-09-26 09:47:00,
2013-09-26 04:52:00,67.5,66.6,30.00,East,90,0.0,0.0,97,0.00,CLR,BKN,0.00,0.0,WeatherDisplay:10.37,2013-09-26 09:52:00,
2013-09-26 04:57:00,67.5,66.6,30.00,East,90,0.0,0.0,97,0.00,CLR,BKN,0.00,0.0,WeatherDisplay:10.37,2013-09-26 09:57:00,
2013-09-26 05:02:00,67.5,66.6,30.00,NE,45,0.0,0.0,97,0.00,CLR,BKN,0.00,0.0,WeatherDisplay:10.37,2013-09-26 10:02:00,
2013-09-26 05:07:00,67.3,66.4,30.00,NE,45,1.2,1.2,97,0.00,CLR,BKN,0.00,0.0,WeatherDisplay:10.37,2013-09-26 10:07:00,
2013-09-26 05:10:00,66.4,65.5,30.03,ENE,61,0.0,1.0,97,0.00,SHSN,BKN,0.00,0.0,WeatherDisplay:10.37,2013-09-26 10:10:00,
2013-09-26 05:12:00,67.3,66.4,30.00,SSW,202,0.0,0.0,97,0.00,CLR,BKN,0.00,0.0,WeatherDisplay:10.37,2013-09-26 10:12:00,
2013-09-26 05:17:00,67.3,66.4,30.00,East,90,0.0,0.0,97,0.00,CLR,BKN,0.00,0.0,WeatherDisplay:10.37,2013-09-26 10:17:00,
2013-09-26 05:22:00,67.3,66.4,30.00,ENE,68,0.0,0.0,97,0.00,CLR,BKN,0.00,0.0,WeatherDisplay:10.37,2013-09-26 10:22:00,
2013-09-26 05:27:00,67.1,66.2,30.00,SE,135,0.0,0.0,97,0.00,CLR,BKN,0.00,0.0,WeatherDisplay:10.37,2013-09-26 10:27:00,
2013-09-26 05:32:00,67.1,66.2,30.00,East,90,0.0,0.0,97,0.00,CLR,BKN,0.00,0.0,WeatherDisplay:10.37,2013-09-26 10:32:00,
2013-09-26 05:37:00,66.9,66.0,30.00,East,90,0.0,0.0,97,0.00,CLR,BKN,0.00,0.0,WeatherDisplay:10.37,2013-09-26 10:37:00,
2013-09-26 05:42:00,66.7,65.9,30.00,NE,45,0.0,0.0,97,0.00,CLR,BKN,0.00,0.0,WeatherDisplay:10.37,2013-09-26 10:42:00,
2013-09-26 05:47:00,66.7,65.9,30.00,NNE,22,0.0,0.0,97,0.00,CLR,BKN,0.00,0.0,WeatherDisplay:10.37,2013-09-26 10:47:00,
2013-09-26 05:52:00,66.6,65.7,30.00,East,90,0.0,0.0,97,0.00,CLR,BKN,0.00,0.0,WeatherDisplay:10.37,2013-09-26 10:52:00,
2013-09-26 05:57:00,66.6,65.7,30.00,East,90,0.0,0.0,97,0.00,CLR,BKN,0.00,0.0,WeatherDisplay:10.37,2013-09-26 10:57:00,
2013-09-26 06:02:00,66.4,65.5,30.03,WSW,248,0.0,0.0,97,0.00,CLR,BKN,0.00,0.0,WeatherDisplay:10.37,2013-09-26 11:02:00,
2013-09-26 06:07:00,66.4,65.5,30.03,ENE,68,0.0,0.0,97,0.00,CLR,BKN,0.00,0.0,WeatherDisplay:10.37,2013-09-26 11:07:00,
2013-09-26 06:13:00,66.4,65.5,30.03,ENE,68,1.1,0.0,97,0.00,CLR,BKN,0.00,0.0,WeatherDisplay:10.37,2013-09-26 11:13:00,
2013-09-26 06:18:00,66.2,65.3,30.03,East,90,0.0,0.0,97,0.00,CLR,BKN,0.00,0.0,WeatherDisplay:10.37,2013-09-26 11:18:00,
2013-09-26 06:23:00,66.2,65.3,30.03,East,90,0.0,0.0,97,0.00,CLR,BKN,0.00,0.0,WeatherDisplay:10.37,2013-09-26 11:23:00,
2013-09-26 06:28:00,66.0,65.1,30.03,West,270,0.0,0.0,97,0.00,CLR,BKN,0.00,0.0,WeatherDisplay:10.37,2013-09-26 11:28:00,
2013-09-26 06:33:00,66.0,65.1,30.03,ENE,68,0.0,0.0,97,0.00,CLR,BKN,0.00,0.0,WeatherDisplay:10.37,2013-09-26 11:33:00,
2013-09-26 06:38:00,66.0,65.1,30.03,ENE,68,0.0,0.0,97,0.00,CLR,BKN,0.00,0.0,WeatherDisplay:10.37,2013-09-26 11:38:00,
2013-09-26 06:43:00,66.0,65.1,30.03,ENE,68,0.0,0.0,97,0.00,CLR,BKN,0.00,0.0,WeatherDisplay:10.37,2013-09-26 11:43:00,
2013-09-26 06:45:00,69.8,68.9,30.06,NW,319,2.0,3.0,97,0.00,SHSN,BKN,0.00,0.0,WeatherDisplay:10.37,2013-09-26 11:45:00,
2013-09-26 06:49:00,65.8,65.0,30.03,NE,45,0.0,0.0,97,0.00,CLR,BKN,0.00,0.0,WeatherDisplay:10.37,2013-09-26 11:49:00,
2013-09-26 06:50:00,70.2,69.3,30.06,NNW,345,1.0,2.0,97,0.00,SHSN,BKN,0.00,0.0,WeatherDisplay:10.37,2013-09-26 11:50:00,
2013-09-26 06:54:00,65.8,65.0,30.03,NE,45,0.0,0.0,97,0.00,CLR,BKN,0.00,0.0,WeatherDisplay:10.37,2013-09-26 11:54:00,
2013-09-26 06:55:00,70.9,70.0,30.06,North,351,2.0,2.0,97,0.00,SHSN,BKN,0.00,0.0,WeatherDisplay:10.37,2013-09-26 11:55:00,
2013-09-26 06:59:00,65.8,65.0,30.03,East,90,0.0,0.0,97,0.00,CLR,BKN,0.00,0.0,WeatherDisplay:10.37,2013-09-26 11:59:00,
2013-09-26 07:00:00,71.1,69.9,30.06,NNW,333,2.0,2.0,96,0.00,SHSN,BKN,0.00,0.0,WeatherDisplay:10.37,2013-09-26 12:00:00,
2013-09-26 07:04:00,65.8,65.0,30.03,East,90,0.0,0.0,97,0.00,CLR,BKN,0.00,0.0,WeatherDisplay:10.37,2013-09-26 12:04:00,
2013-09-26 07:05:00,71.6,70.1,30.06,NNW,334,1.0,3.0,95,0.00,SHSN,BKN,0.00,0.0,WeatherDisplay:10.37,2013-09-26 12:05:00,
2013-09-26 07:09:00,66.0,65.1,30.03,East,90,0.0,0.0,97,0.00,CLR,BKN,0.00,0.0,WeatherDisplay:10.37,2013-09-26 12:09:00,
2013-09-26 07:10:00,72.3,70.8,30.06,NNW,333,2.0,2.0,95,0.00,SHSN,BKN,0.00,0.0,WeatherDisplay:10.37,2013-09-26 12:10:00,
2013-09-26 07:14:00,66.4,65.5,30.03,East,90,0.0,0.0,97,0.00,CLR,BKN,0.00,0.0,WeatherDisplay:10.37,2013-09-26 12:14:00,
2013-09-26 07:19:00,66.9,66.0,30.03,East,90,0.0,0.0,97,0.00,CLR,BKN,0.00,0.0,WeatherDisplay:10.37,2013-09-26 12:19:00,
2013-09-26 07:24:00,67.5,66.6,30.03,West,270,2.9,2.9,97,0.00,CLR,BKN,0.00,0.0,WeatherDisplay:10.37,2013-09-26 12:24:00,
2013-09-26 07:29:00,68.0,67.1,30.03,NW,315,2.3,2.3,97,0.00,CLR,BKN,0.00,0.0,WeatherDisplay:10.37,2013-09-26 12:29:00,
2013-09-26 07:34:00,69.1,68.2,30.03,North,0,2.3,0.0,97,0.00,CLR,BKN,0.00,0.0,WeatherDisplay:10.37,2013-09-26 12:34:00,
2013-09-26 07:39:00,69.3,68.4,30.03,NNW,338,2.3,2.3,97,0.00,CLR,BKN,0.00,0.0,WeatherDisplay:10.37,2013-09-26 12:39:00,
2013-09-26 08:14:00,72.3,70.8,30.06,NW,315,2.3,2.3,95,0.00,CLR,BKN,0.00,0.0,WeatherDisplay:10.37,2013-09-26 13:14:00,
2013-09-26 08:19:00,73.0,71.2,30.06,NW,315,1.2,1.2,94,0.00,CLR,BKN,0.00,0.0,WeatherDisplay:10.37,2013-09-26 13:19:00,
2013-09-26 08:24:00,73.4,70.6,30.06,NW,315,3.5,3.5,91,0.00,CLR,BKN,0.00,0.0,WeatherDisplay:10.37,2013-09-26 13:24:00,
2013-09-26 08:29:00,73.6,70.5,30.06,NE,45,3.5,3.5,90,0.00,CLR,BKN,0.00,0.0,WeatherDisplay:10.37,2013-09-26 13:29:00,
2013-09-26 08:34:00,74.1,70.3,30.06,North,0,3.5,3.5,88,0.00,CLR,BKN,0.00,0.0,WeatherDisplay:10.37,2013-09-26 13:34:00,
2013-09-26 08:39:00,75.9,72.1,30.06,WNW,292,2.3,2.3,88,0.00,CLR,BKN,0.00,0.0,WeatherDisplay:10.37,2013-09-26 13:39:00,
2013-09-26 08:44:00,77.9,74.1,30.06,WNW,292,2.3,2.3,88,0.00,CLR,BKN,0.00,0.0,WeatherDisplay:10.37,2013-09-26 13:44:00,
2013-09-26 08:49:00,78.8,73.6,30.06,WNW,292,2.3,2.3,84,0.00,CLR,BKN,0.00,0.0,WeatherDisplay:10.37,2013-09-26 13:49:00,
2013-09-26 08:54:00,80.6,74.6,30.06,North,0,2.3,2.3,82,0.00,CLR,BKN,0.00,0.0,WeatherDisplay:10.37,2013-09-26 13:54:00,
2013-09-26 08:59:00,81.7,74.5,30.06,NNW,338,2.3,0.0,79,0.00,CLR,BKN,0.00,0.0,WeatherDisplay:10.37,2013-09-26 13:59:00,
2013-09-26 09:04:00,82.6,74.6,30.06,ESE,112,1.2,0.0,77,0.00,CLR,BKN,0.00,0.0,WeatherDisplay:10.37,2013-09-26 14:04:00,
2013-09-26 09:09:00,83.8,75.1,30.06,NNW,338,2.3,2.3,75,0.00,CLR,BKN,0.00,0.0,WeatherDisplay:10.37,2013-09-26 14:09:00,
2013-09-26 09:14:00,84.4,75.6,30.09,NE,45,1.6,1.6,75,0.00,CLR,BKN,0.00,0.0,WeatherDisplay:10.37,2013-09-26 14:14:00,
2013-09-26 09:19:00,86.0,75.1,30.09,North,0,1.2,0.0,70,0.00,CLR,BKN,0.00,0.0,WeatherDisplay:10.37,2013-09-26 14:19:00,
2013-09-26 09:24:00,86.9,75.5,30.09,ENE,68,1.2,0.0,69,0.00,CLR,BKN,0.00,0.0,WeatherDisplay:10.37,2013-09-26 14:24:00,
2013-09-26 09:29:00,87.1,74.8,30.09,NE,45,1.2,0.0,67,0.00,CLR,BKN,0.00,0.0,WeatherDisplay:10.37,2013-09-26 14:29:00,
2013-09-26 09:34:00,88.0,74.7,30.09,WNW,292,2.3,2.3,65,0.00,CLR,BKN,0.00,0.0,WeatherDisplay:10.37,2013-09-26 14:34:00,
2013-09-26 09:39:00,88.9,74.7,30.09,NW,315,2.3,2.3,63,0.00,CLR,BKN,0.00,0.0,WeatherDisplay:10.37,2013-09-26 14:39:00,
2013-09-26 09:44:00,89.6,74.9,30.09,NNE,22,1.2,0.0,62,0.00,CLR,BKN,0.00,0.0,WeatherDisplay:10.37,2013-09-26 14:44:00,
2013-09-26 09:49:00,90.5,74.7,30.09,SE,135,1.2,0.0,60,0.00,CLR,BKN,0.00,0.0,WeatherDisplay:10.37,2013-09-26 14:49:00,
2013-09-26 09:54:00,90.5,73.7,30.09,SSE,158,0.0,0.0,58,0.00,CLR,BKN,0.00,0.0,WeatherDisplay:10.37,2013-09-26 14:54:00,
2013-09-26 09:59:00,91.8,74.9,30.09,WSW,248,1.2,0.0,58,0.00,CLR,BKN,0.00,0.0,WeatherDisplay:10.37,2013-09-26 14:59:00,
2013-09-26 10:04:00,92.1,75.2,30.09,West,270,1.2,1.2,58,0.00,CLR,BKN,0.00,0.0,WeatherDisplay:10.37,2013-09-26 15:04:00,
2013-09-26 10:09:00,92.8,74.8,30.09,NW,315,2.3,2.3,56,0.00,CLR,BKN,0.00,0.0,WeatherDisplay:10.37,2013-09-26 15:09:00,
2013-09-26 10:14:00,93.4,73.7,30.09,NW,315,2.3,2.3,53,0.00,CLR,BKN,0.00,0.0,WeatherDisplay:10.37,2013-09-26 15:14:00,
2013-09-26 10:19:00,93.4,71.4,30.09,West,270,2.3,2.3,49,0.00,CLR,BKN,0.00,0.0,WeatherDisplay:10.37,2013-09-26 15:19:00,
2013-09-26 10:24:00,93.7,71.1,30.09,North,0,2.3,2.3,48,0.00,CLR,BKN,0.00,0.0,WeatherDisplay:10.37,2013-09-26 15:24:00,
2013-09-26 10:29:00,94.5,72.3,30.09,ENE,68,2.3,2.3,49,0.00,CLR,BKN,0.00,0.0,WeatherDisplay:10.37,2013-09-26 15:29:00,
2013-09-26 10:35:00,94.8,70.8,30.09,NNW,338,3.5,3.5,46,0.00,CLR,BKN,0.00,0.0,WeatherDisplay:10.37,2013-09-26 15:35:00,
2013-09-26 10:40:00,94.6,70.6,30.09,WNW,292,2.3,0.0,46,0.00,CLR,BKN,0.00,0.0,WeatherDisplay:10.37,2013-09-26 15:40:00,
2013-09-26 10:45:00,95.4,70.7,30.09,WSW,248,2.3,2.3,45,0.00,CLR,BKN,0.00,0.0,WeatherDisplay:10.37,2013-09-26 15:45:00,
2013-09-26 10:50:00,95.9,69.8,30.09,WNW,292,2.2,2.2,43,0.00,CLR,BKN,0.00,0.0,WeatherDisplay:10.37,2013-09-26 15:50:00,
2013-09-26 10:55:00,96.4,71.0,30.09,NNW,338,2.4,2.4,44,0.00,CLR,BKN,0.00,0.0,WeatherDisplay:10.37,2013-09-26 15:55:00,
2013-09-26 11:00:00,97.0,69.4,30.09,West,270,2.6,2.6,41,0.00,CLR,BKN,0.00,0.0,WeatherDisplay:10.37,2013-09-26 16:00:00,
2013-09-26 11:05:00,96.4,70.3,30.09,NNW,338,2.3,2.3,43,0.00,CLR,BKN,0.00,0.0,WeatherDisplay:10.37,2013-09-26 16:05:00,
2013-09-26 11:10:00,97.3,69.0,30.09,NNW,327,1.0,4.0,40,0.00,SHSN,BKN,0.00,0.0,WeatherDisplay:10.37,2013-09-26 16:10:00,
2013-09-26 11:15:00,97.3,69.0,30.09,NNW,338,3.1,3.1,40,0.00,CLR,BKN,0.00,0.0,WeatherDisplay:10.37,2013-09-26 16:15:00,
2013-09-26 11:20:00,97.5,67.6,30.09,North,0,2.3,2.3,38,0.00,CLR,BKN,0.00,0.0,WeatherDisplay:10.37,2013-09-26 16:20:00,
2013-09-26 11:25:00,97.7,67.8,30.09,NW,315,2.3,2.3,38,0.00,CLR,BKN,0.00,0.0,WeatherDisplay:10.37,2013-09-26 16:25:00,
2013-09-26 11:30:00,97.3,67.5,30.09,NE,45,2.3,2.3,38,0.00,CLR,BKN,0.00,0.0,WeatherDisplay:10.37,2013-09-26 16:30:00,
2013-09-26 11:35:00,96.6,64.5,30.09,WSW,248,3.8,3.8,35,0.00,CLR,BKN,0.00,0.0,WeatherDisplay:10.37,2013-09-26 16:35:00,
2013-09-26 11:40:00,96.4,65.1,30.09,West,270,2.6,2.6,36,0.00,CLR,BKN,0.00,0.0,WeatherDisplay:10.37,2013-09-26 16:40:00,
2013-09-26 11:45:00,96.8,65.4,30.09,West,270,3.5,3.5,36,0.00,CLR,BKN,0.00,0.0,WeatherDisplay:10.37,2013-09-26 16:45:00,
2013-09-26 11:50:00,97.0,65.6,30.09,NNW,338,2.3,2.3,36,0.00,CLR,BKN,0.00,0.0,WeatherDisplay:10.37,2013-09-26 16:50:00,
2013-09-26 11:55:00,97.9,66.4,30.09,SW,225,3.5,3.5,36,0.00,CLR,BKN,0.00,0.0,WeatherDisplay:10.37,2013-09-26 16:55:00,
2013-09-26 12:00:00,97.0,64.0,30.09,WSW,248,4.9,4.9,34,0.00,CLR,BKN,0.00,0.0,WeatherDisplay:10.37,2013-09-26 17:00:00,
2013-09-26 12:05:00,96.3,65.0,30.09,East,90,2.6,0.0,36,0.00,CLR,BKN,0.00,0.0,WeatherDisplay:10.37,2013-09-26 17:05:00,
2013-09-26 12:10:00,96.6,65.3,30.09,WNW,292,4.6,4.6,36,0.00,CLR,BKN,0.00,0.0,WeatherDisplay:10.37,2013-09-26 17:10:00,
2013-09-26 12:15:00,97.3,65.1,30.09,WNW,299,2.0,3.0,35,0.00,SHSN,BKN,0.00,0.0,WeatherDisplay:10.37,2013-09-26 17:15:00,
2013-09-26 12:20:00,97.3,65.1,30.09,South,180,2.3,0.0,35,0.00,CLR,BKN,0.00,0.0,WeatherDisplay:10.37,2013-09-26 17:20:00,
2013-09-26 12:25:00,97.5,64.4,30.09,East,90,1.2,1.2,34,0.00,CLR,BKN,0.00,0.0,WeatherDisplay:10.37,2013-09-26 17:25:00,
2013-09-26 12:30:00,98.1,65.7,30.06,NNW,338,2.6,2.6,35,0.00,CLR,BKN,0.00,0.0,WeatherDisplay:10.37,2013-09-26 17:30:00,
2013-09-26 12:35:00,97.5,66.1,30.06,WSW,248,4.6,4.6,36,0.00,CLR,BKN,0.00,0.0,WeatherDisplay:10.37,2013-09-26 17:35:00,
2013-09-26 12:40:00,96.6,63.6,30.06,WSW,248,3.5,3.5,34,0.00,CLR,BKN,0.00,0.0,WeatherDisplay:10.37,2013-09-26 17:40:00,
2013-09-26 12:45:00,96.8,63.8,30.06,South,180,3.3,3.3,34,0.00,CLR,BKN,0.00,0.0,WeatherDisplay:10.37,2013-09-26 17:45:00,
2013-09-26 12:50:00,97.0,64.8,30.06,East,90,2.3,2.3,35,0.00,CLR,BKN,0.00,0.0,WeatherDisplay:10.37,2013-09-26 17:50:00,
2013-09-26 12:55:00,97.0,64.0,30.06,South,180,1.2,1.2,34,0.00,CLR,BKN,0.00,0.0,WeatherDisplay:10.37,2013-09-26 17:55:00,
2013-09-26 13:00:00,97.9,64.7,30.06,ENE,68,3.5,3.5,34,0.00,CLR,BKN,0.00,0.0,WeatherDisplay:10.37,2013-09-26 18:00:00,
2013-09-26 13:05:00,98.4,65.2,30.06,North,0,2.3,2.4,34,0.00,CLR,BKN,0.00,0.0,WeatherDisplay:10.37,2013-09-26 18:05:00,
2013-09-26 13:10:00,98.6,66.2,30.06,WSW,248,2.3,2.3,35,0.00,CLR,BKN,0.00,0.0,WeatherDisplay:10.37,2013-09-26 18:10:00,
2013-09-26 13:15:00,98.6,65.4,30.06,East,90,2.3,2.3,34,0.00,CLR,BKN,0.00,0.0,WeatherDisplay:10.37,2013-09-26 18:15:00,
2013-09-26 13:20:00,98.6,65.4,30.06,SSE,158,2.3,2.3,34,0.00,CLR,BKN,0.00,0.0,WeatherDisplay:10.37,2013-09-26 18:20:00,
2013-09-26 13:25:00,97.5,64.4,30.06,ESE,112,3.5,3.5,34,0.00,CLR,BKN,0.00,0.0,WeatherDisplay:10.37,2013-09-26 18:25:00,
2013-09-26 13:30:00,97.2,63.3,30.06,West,270,2.4,2.6,33,0.00,CLR,BKN,0.00,0.0,WeatherDisplay:10.37,2013-09-26 18:30:00,
2013-09-26 13:35:00,97.9,64.7,30.06,SW,225,3.3,3.3,34,0.00,CLR,BKN,0.00,0.0,WeatherDisplay:10.37,2013-09-26 18:35:00,
2013-09-26 13:40:00,97.7,64.6,30.06,NNE,22,4.9,4.9,34,0.00,CLR,BKN,0.00,0.0,WeatherDisplay:10.37,2013-09-26 18:40:00,
2013-09-26 13:45:00,97.2,65.0,30.06,WSW,248,3.5,3.5,35,0.00,CLR,BKN,0.00,0.0,WeatherDisplay:10.37,2013-09-26 18:45:00,
2013-09-26 13:50:00,97.3,65.9,30.06,SW,225,2.0,2.0,36,0.00,CLR,BKN,0.00,0.0,WeatherDisplay:10.37,2013-09-26 18:50:00,
2013-09-26 13:55:00,97.3,64.3,30.06,SSE,158,4.6,4.6,34,0.00,CLR,BKN,0.00,0.0,WeatherDisplay:10.37,2013-09-26 18:55:00,
2013-09-26 14:00:00,96.4,64.3,30.03,West,270,3.5,3.5,35,0.00,CLR,BKN,0.00,0.0,WeatherDisplay:10.37,2013-09-26 19:00:00,
2013-09-26 14:05:00,96.6,65.3,30.03,East,90,2.3,2.3,36,0.00,FEW,BKN,0.00,0.0,WeatherDisplay:10.37,2013-09-26 19:05:00,
2013-09-26 14:10:00,95.5,63.5,30.03,NNE,22,2.9,2.9,35,0.00,FEW,BKN,0.00,0.0,WeatherDisplay:10.37,2013-09-26 19:10:00,
2013-09-26 14:16:00,96.1,64.8,30.03,WNW,292,1.2,1.2,36,0.00,FEW,BKN,0.00,0.0,WeatherDisplay:10.37,2013-09-26 19:16:00,
2013-09-26 14:21:00,95.7,64.5,30.03,WSW,248,2.3,2.3,36,0.00,FEW,BKN,0.00,0.0,WeatherDisplay:10.37,2013-09-26 19:21:00,
2013-09-26 14:26:00,95.4,64.2,30.03,SW,225,2.3,2.3,36,0.00,FEW,BKN,0.00,0.0,WeatherDisplay:10.37,2013-09-26 19:26:00,
2013-09-26 14:31:00,95.2,64.0,30.03,WSW,248,2.3,2.3,36,0.00,FEW,BKN,0.00,0.0,WeatherDisplay:10.37,2013-09-26 19:31:00,
2013-09-26 14:36:00,94.8,63.7,30.03,West,270,4.6,4.6,36,0.00,FEW,BKN,0.00,0.0,WeatherDisplay:10.37,2013-09-26 19:36:00,
2013-09-26 14:41:00,94.3,64.0,30.03,South,180,3.5,3.5,37,0.00,FEW,BKN,0.00,0.0,WeatherDisplay:10.37,2013-09-26 19:41:00,
2013-09-26 14:46:00,94.1,63.1,30.03,SSW,202,2.3,2.3,36,0.00,FEW,BKN,0.00,0.0,WeatherDisplay:10.37,2013-09-26 19:46:00,
2013-09-26 14:51:00,93.4,63.2,30.03,South,180,3.5,3.5,37,0.00,FEW,BKN,0.00,0.0,WeatherDisplay:10.37,2013-09-26 19:51:00,
2013-09-26 14:56:00,92.8,62.7,30.03,South,180,2.3,2.3,37,0.00,FEW,BKN,0.00,0.0,WeatherDisplay:10.37,2013-09-26 19:56:00,
2013-09-26 15:01:00,92.8,62.7,30.03,SSE,158,3.5,3.5,37,0.00,FEW,BKN,0.00,0.0,WeatherDisplay:10.37,2013-09-26 20:01:00,
2013-09-26 15:06:00,92.1,62.1,30.03,WSW,248,4.6,4.6,37,0.00,FEW,BKN,0.00,0.0,WeatherDisplay:10.37,2013-09-26 20:06:00,
2013-09-26 15:11:00,92.3,63.0,30.03,WSW,248,3.5,3.5,38,0.00,FEW,BKN,0.00,0.0,WeatherDisplay:10.37,2013-09-26 20:11:00,
2013-09-26 15:16:00,91.8,62.5,30.03,WSW,248,2.3,2.3,38,0.00,FEW,BKN,0.00,0.0,WeatherDisplay:10.37,2013-09-26 20:16:00,
2013-09-26 15:21:00,91.2,63.5,30.03,SW,225,2.9,2.9,40,0.00,FEW,BKN,0.00,0.0,WeatherDisplay:10.37,2013-09-26 20:21:00,
2013-09-26 15:26:00,90.3,62.7,30.03,SSW,202,2.4,2.4,40,0.00,FEW,BKN,0.00,0.0,WeatherDisplay:10.37,2013-09-26 20:26:00,
2013-09-26 15:31:00,89.8,62.2,30.03,WNW,292,3.6,3.6,40,0.00,FEW,BKN,0.00,0.0,WeatherDisplay:10.37,2013-09-26 20:31:00,
2013-09-26 15:36:00,89.6,62.8,30.03,ESE,112,2.3,2.3,41,0.00,FEW,BKN,0.00,0.0,WeatherDisplay:10.37,2013-09-26 20:36:00,
2013-09-26 15:41:00,89.2,63.1,30.03,ESE,112,3.5,3.5,42,0.00,FEW,BKN,0.00,0.0,WeatherDisplay:10.37,2013-09-26 20:41:00,
2013-09-26 15:47:00,88.9,63.5,30.00,SW,225,2.3,2.3,43,0.00,FEW,BKN,0.00,0.0,WeatherDisplay:10.37,2013-09-26 20:47:00,
2013-09-26 15:52:00,88.5,63.2,30.00,South,180,2.3,2.3,43,0.00,FEW,BKN,0.00,0.0,WeatherDisplay:10.37,2013-09-26 20:52:00,
2013-09-26 15:57:00,88.5,63.2,30.00,WSW,248,1.4,1.4,43,0.00,FEW,BKN,0.00,0.0,WeatherDisplay:10.37,2013-09-26 20:57:00,
2013-09-26 16:02:00,88.5,63.8,30.03,SE,135,1.4,1.4,44,0.00,FEW,BKN,0.00,0.0,WeatherDisplay:10.37,2013-09-26 21:02:00,
2013-09-26 16:07:00,88.3,63.7,30.03,SSE,158,1.2,0.0,44,0.00,FEW,BKN,0.00,0.0,WeatherDisplay:10.37,2013-09-26 21:07:00,
2013-09-26 16:12:00,88.2,63.5,30.03,SE,135,1.2,1.4,44,0.00,FEW,BKN,0.00,0.0,WeatherDisplay:10.37,2013-09-26 21:12:00,
2013-09-26 16:17:00,88.2,62.8,30.03,SSE,158,2.3,2.3,43,0.00,FEW,BKN,0.00,0.0,WeatherDisplay:10.37,2013-09-26 21:17:00,
2013-09-26 16:22:00,88.2,63.5,30.03,NW,315,2.3,2.3,44,0.00,FEW,BKN,0.00,0.0,WeatherDisplay:10.37,2013-09-26 21:22:00,
2013-09-26 16:27:00,88.0,63.3,30.03,SW,225,2.4,2.4,44,0.00,FEW,BKN,0.00,0.0,WeatherDisplay:10.37,2013-09-26 21:27:00,
2013-09-26 16:32:00,87.8,63.2,30.03,SSW,202,2.3,0.0,44,0.00,FEW,BKN,0.00,0.0,WeatherDisplay:10.37,2013-09-26 21:32:00,
2013-09-26 16:37:00,87.6,63.7,30.03,NW,315,2.3,2.3,45,0.00,FEW,BKN,0.00,0.0,WeatherDisplay:10.37,2013-09-26 21:37:00,
2013-09-26 16:42:00,87.4,63.5,30.03,SW,225,1.2,1.6,45,0.00,FEW,BKN,0.00,0.0,WeatherDisplay:10.37,2013-09-26 21:42:00,
2013-09-26 16:47:00,87.3,63.3,30.03,SSW,202,2.3,2.3,45,0.00,FEW,BKN,0.00,0.0,WeatherDisplay:10.37,2013-09-26 21:47:00,
2013-09-26 16:52:00,87.4,63.5,30.03,ENE,68,2.3,2.3,45,0.00,FEW,BKN,0.00,0.0,WeatherDisplay:10.37,2013-09-26 21:52:00,
2013-09-26 16:57:00,87.4,63.5,30.03,SSE,158,1.6,0.0,45,0.00,FEW,BKN,0.00,0.0,WeatherDisplay:10.37,2013-09-26 21:57:00,
2013-09-26 17:02:00,87.3,63.3,30.00,South,180,1.2,0.0,45,0.00,SCT,BKN,0.00,0.0,WeatherDisplay:10.37,2013-09-26 22:02:00,
2013-09-26 17:07:00,87.1,63.2,30.00,ENE,68,1.2,0.0,45,0.00,SCT,BKN,0.00,0.0,WeatherDisplay:10.37,2013-09-26 22:07:00,
2013-09-26 17:12:00,86.7,62.8,30.00,ENE,68,2.4,2.4,45,0.00,SCT,BKN,0.00,0.0,WeatherDisplay:10.37,2013-09-26 22:12:00,
2013-09-26 17:17:00,86.5,62.7,30.03,South,180,1.4,1.4,45,0.00,SCT,BKN,0.00,0.0,WeatherDisplay:10.37,2013-09-26 22:17:00,
2013-09-26 17:22:00,86.2,62.3,30.03,West,270,1.2,1.2,45,0.00,SCT,BKN,0.00,0.0,WeatherDisplay:10.37,2013-09-26 22:22:00,
2013-09-26 17:27:00,85.8,62.6,30.03,SSE,158,0.0,0.0,46,0.00,SCT,BKN,0.00,0.0,WeatherDisplay:10.37,2013-09-26 22:27:00,
2013-09-26 17:32:00,85.5,62.3,30.03,NNW,338,1.2,0.0,46,0.00,SCT,BKN,0.00,0.0,WeatherDisplay:10.37,2013-09-26 22:32:00,
2013-09-26 17:37:00,85.1,62.6,30.03,West,270,0.0,0.0,47,0.00,SCT,BKN,0.00,0.0,WeatherDisplay:10.37,2013-09-26 22:37:00,
2013-09-26 17:42:00,84.7,62.9,30.03,SE,135,0.0,0.0,48,0.00,SCT,BKN,0.00,0.0,WeatherDisplay:10.37,2013-09-26 22:42:00,
2013-09-26 17:47:00,84.4,62.5,30.03,SSW,202,1.2,0.0,48,0.00,SCT,BKN,0.00,0.0,WeatherDisplay:10.37,2013-09-26 22:47:00,
2013-09-26 17:52:00,84.2,62.4,30.03,SW,225,0.0,0.0,48,0.00,SCT,BKN,0.00,0.0,WeatherDisplay:10.37,2013-09-26 22:52:00,
2013-09-26 17:57:00,84.2,63.5,30.03,WSW,248,0.0,0.0,50,0.00,SCT,BKN,0.00,0.0,WeatherDisplay:10.37,2013-09-26 22:57:00,
2013-09-26 18:02:00,84.0,63.9,30.03,South,180,1.2,0.0,51,0.00,FEW,BKN,0.00,0.0,WeatherDisplay:10.37,2013-09-26 23:02:00,
2013-09-26 18:07:00,83.7,64.2,30.03,South,180,1.2,0.0,52,0.00,FEW,BKN,0.00,0.0,WeatherDisplay:10.37,2013-09-26 23:07:00,
2013-09-26 18:12:00,82.9,65.1,30.03,SSE,158,0.0,0.0,55,0.00,FEW,BKN,0.00,0.0,WeatherDisplay:10.37,2013-09-26 23:12:00,
2013-09-26 18:17:00,82.4,65.1,30.03,South,180,0.0,0.0,56,0.00,FEW,BKN,0.00,0.0,WeatherDisplay:10.37,2013-09-26 23:17:00,
2013-09-26 18:22:00,81.7,65.5,30.03,South,180,0.0,0.0,58,0.00,FEW,BKN,0.00,0.0,WeatherDisplay:10.37,2013-09-26 23:22:00,
2013-09-26 18:27:00,81.0,65.8,30.03,NW,315,0.0,0.0,60,0.00,FEW,BKN,0.00,0.0,WeatherDisplay:10.37,2013-09-26 23:27:00,
2013-09-26 18:33:00,80.1,66.3,30.00,NW,315,0.0,0.0,63,0.00,FEW,BKN,0.00,0.0,WeatherDisplay:10.37,2013-09-26 23:33:00,
2013-09-26 18:38:00,79.5,66.3,30.00,NW,315,0.0,0.0,64,0.00,FEW,BKN,0.00,0.0,WeatherDisplay:10.37,2013-09-26 23:38:00,
2013-09-26 18:43:00,79.0,65.8,30.03,NE,45,0.0,0.0,64,0.00,FEW,BKN,0.00,0.0,WeatherDisplay:10.37,2013-09-26 23:43:00,
2013-09-26 18:48:00,78.4,66.6,30.03,NE,45,0.0,0.0,67,0.00,FEW,BKN,0.00,0.0,WeatherDisplay:10.37,2013-09-26 23:48:00,
2013-09-26 18:53:00,77.9,66.5,30.03,NE,45,0.0,0.0,68,0.00,FEW,BKN,0.00,0.0,WeatherDisplay:10.37,2013-09-26 23:53:00,
2013-09-26 18:58:00,77.5,67.4,30.03,East,90,0.0,0.0,71,0.00,FEW,BKN,0.00,0.0,WeatherDisplay:10.37,2013-09-26 23:58:00,
2013-09-26 19:03:00,76.8,67.9,30.03,East,90,0.0,0.0,74,0.00,SCT,BKN,0.00,0.0,WeatherDisplay:10.37,2013-09-27 00:03:00,
2013-09-26 19:10:00,76.5,67.6,30.03,East,90,0.0,0.0,74,0.00,SHSN,BKN,0.00,0.0,WeatherDisplay:10.37,2013-09-27 00:10:00,
2013-09-26 19:15:00,75.9,67.8,30.06,East,90,0.0,0.0,76,0.00,SCT,BKN,0.00,0.0,WeatherDisplay:10.37,2013-09-27 00:15:00,
2013-09-26 19:20:00,75.4,67.7,30.06,East,90,0.0,0.0,77,0.00,SCT,BKN,0.00,0.0,WeatherDisplay:10.37,2013-09-27 00:20:00,
2013-09-26 19:25:00,75.0,67.3,30.06,East,90,0.0,0.0,77,0.00,SCT,BKN,0.00,0.0,WeatherDisplay:10.37,2013-09-27 00:25:00,
2013-09-26 19:30:00,74.8,67.9,30.06,East,90,0.0,0.0,79,0.00,SCT,BKN,0.00,0.0,WeatherDisplay:10.37,2013-09-27 00:30:00,
2013-09-26 19:35:00,74.5,67.9,30.06,East,90,0.0,0.0,80,0.00,SCT,BKN,0.00,0.0,WeatherDisplay:10.37,2013-09-27 00:35:00,
2013-09-26 19:40:00,74.1,67.6,30.06,ENE,68,0.0,0.0,80,0.00,SCT,BKN,0.00,0.0,WeatherDisplay:10.37,2013-09-27 00:40:00,
2013-09-26 19:45:00,73.9,67.4,30.06,ENE,68,0.0,0.0,80,0.00,SCT,BKN,0.00,0.0,WeatherDisplay:10.37,2013-09-27 00:45:00,
2013-09-26 19:50:00,73.8,68.3,30.06,ENE,68,0.0,0.0,83,0.00,SHSN,BKN,0.00,0.0,WeatherDisplay:10.37,2013-09-27 00:50:00,
2013-09-26 19:55:00,73.6,68.1,30.06,ENE,68,0.0,0.0,83,0.00,SCT,BKN,0.00,0.0,WeatherDisplay:10.37,2013-09-27 00:55:00,
2013-09-26 20:00:00,73.4,68.3,30.06,ENE,68,0.0,0.0,84,0.00,SHSN,BKN,0.00,0.0,WeatherDisplay:10.37,2013-09-27 01:00:00,
2013-09-26 20:05:00,73.2,68.4,30.06,ENE,68,0.0,0.0,85,0.00,CLR,BKN,0.00,0.0,WeatherDisplay:10.37,2013-09-27 01:05:00,
2013-09-26 20:10:00,73.0,68.6,30.06,ENE,68,0.0,0.0,86,0.00,SHSN,BKN,0.00,0.0,WeatherDisplay:10.37,2013-09-27 01:10:00,
2013-09-26 20:15:00,72.9,68.4,30.06,ENE,68,0.0,0.0,86,0.00,CLR,BKN,0.00,0.0,WeatherDisplay:10.37,2013-09-27 01:15:00,
2013-09-26 20:20:00,72.7,68.2,30.06,ENE,68,0.0,0.0,86,0.00,SHSN,BKN,0.00,0.0,WeatherDisplay:10.37,2013-09-27 01:20:00,
2013-09-26 20:25:00,72.5,68.4,30.06,ENE,68,0.0,0.0,87,0.00,CLR,BKN,0.00,0.0,WeatherDisplay:10.37,2013-09-27 01:25:00,
2013-09-26 20:30:00,72.3,68.2,30.06,ENE,68,0.0,0.0,87,0.00,CLR,BKN,0.00,0.0,WeatherDisplay:10.37,2013-09-27 01:30:00,
2013-09-26 20:35:00,72.1,68.1,30.06,ENE,68,0.0,0.0,87,0.00,CLR,BKN,0.00,0.0,WeatherDisplay:10.37,2013-09-27 01:35:00,
2013-09-26 20:40:00,72.0,68.2,30.06,ENE,68,0.0,0.0,88,0.00,CLR,BKN,0.00,0.0,WeatherDisplay:10.37,2013-09-27 01:40:00,
2013-09-26 20:45:00,72.0,68.2,30.06,ENE,68,0.0,0.0,88,0.00,CLR,BKN,0.00,0.0,WeatherDisplay:10.37,2013-09-27 01:45:00,
2013-09-26 20:50:00,71.8,68.0,30.06,ENE,68,0.0,0.0,88,0.00,CLR,BKN,0.00,0.0,WeatherDisplay:10.37,2013-09-27 01:50:00,
2013-09-26 20:55:00,71.6,67.9,30.06,ENE,68,0.0,0.0,88,0.00,CLR,BKN,0.00,0.0,WeatherDisplay:10.37,2013-09-27 01:55:00,
2013-09-26 21:00:00,71.4,68.0,30.09,ENE,68,0.0,0.0,89,0.00,CLR,BKN,0.00,0.0,WeatherDisplay:10.37,2013-09-27 02:00:00,
2013-09-26 21:05:00,71.4,68.3,30.09,ENE,68,0.0,0.0,90,0.00,CLR,BKN,0.00,0.0,WeatherDisplay:10.37,2013-09-27 02:05:00,
2013-09-26 21:10:00,71.4,68.7,30.09,ENE,68,0.0,0.0,91,0.00,CLR,BKN,0.00,0.0,WeatherDisplay:10.37,2013-09-27 02:10:00,
2013-09-26 21:15:00,71.4,68.3,30.09,ENE,68,0.0,0.0,90,0.00,CLR,BKN,0.00,0.0,WeatherDisplay:10.37,2013-09-27 02:15:00,
2013-09-26 21:20:00,71.4,68.7,30.09,ENE,68,0.0,0.0,91,0.00,CLR,BKN,0.00,0.0,WeatherDisplay:10.37,2013-09-27 02:20:00,
2013-09-26 21:25:00,71.4,68.7,30.09,ENE,68,0.0,0.0,91,0.00,CLR,BKN,0.00,0.0,WeatherDisplay:10.37,2013-09-27 02:25:00,
2013-09-26 21:30:00,71.6,68.8,30.09,ENE,68,0.0,0.0,91,0.00,CLR,BKN,0.00,0.0,WeatherDisplay:10.37,2013-09-27 02:30:00,
2013-09-26 21:35:00,71.6,68.8,30.09,ENE,68,0.0,0.0,91,0.00,CLR,BKN,0.00,0.0,WeatherDisplay:10.37,2013-09-27 02:35:00,
2013-09-26 21:40:00,71.6,69.2,30.09,East,90,0.0,0.0,92,0.00,CLR,BKN,0.00,0.0,WeatherDisplay:10.37,2013-09-27 02:40:00,
2013-09-26 21:45:00,71.8,69.3,30.09,ENE,68,0.0,0.0,92,0.00,CLR,BKN,0.00,0.0,WeatherDisplay:10.37,2013-09-27 02:45:00,
2013-09-26 21:50:00,71.8,69.6,30.09,ENE,68,1.2,1.2,93,0.00,CLR,BKN,0.00,0.0,WeatherDisplay:10.37,2013-09-27 02:50:00,
2013-09-26 21:55:00,72.0,69.5,30.09,ENE,68,1.2,0.0,92,0.00,CLR,BKN,0.00,0.0,WeatherDisplay:10.37,2013-09-27 02:55:00,
2013-09-26 22:00:00,72.1,69.7,30.09,ENE,68,0.0,0.0,92,0.00,CLR,BKN,0.00,0.0,WeatherDisplay:10.37,2013-09-27 03:00:00,
2013-09-26 22:05:00,72.1,69.7,30.09,East,90,1.2,0.0,92,0.00,CLR,BKN,0.00,0.0,WeatherDisplay:10.37,2013-09-27 03:05:00,
2013-09-26 22:10:00,72.1,69.4,30.09,ENE,68,0.0,0.0,91,0.00,CLR,BKN,0.00,0.0,WeatherDisplay:10.37,2013-09-27 03:10:00,
2013-09-26 22:15:00,72.1,69.4,30.09,East,90,0.0,0.0,91,0.00,CLR,BKN,0.00,0.0,WeatherDisplay:10.37,2013-09-27 03:15:00,
2013-09-26 22:20:00,72.1,69.0,30.09,ENE,68,0.0,0.0,90,0.00,CLR,BKN,0.00,0.0,WeatherDisplay:10.37,2013-09-27 03:20:00,
2013-09-26 22:25:00,72.3,68.9,30.09,ENE,68,0.0,0.0,89,0.00,CLR,BKN,0.00,0.0,WeatherDisplay:10.37,2013-09-27 03:25:00,
2013-09-26 22:30:00,72.3,68.9,30.06,East,90,1.2,1.2,89,0.00,CLR,BKN,0.00,0.0,WeatherDisplay:10.37,2013-09-27 03:30:00,
2013-09-26 22:35:00,72.1,68.4,30.06,NE,45,1.2,0.0,88,0.00,CLR,BKN,0.00,0.0,WeatherDisplay:10.37,2013-09-27 03:35:00,
2013-09-26 22:40:00,72.1,68.4,30.06,East,90,0.0,0.0,88,0.00,CLR,BKN,0.00,0.0,WeatherDisplay:10.37,2013-09-27 03:40:00,
2013-09-26 22:45:00,72.1,68.1,30.09,ENE,68,1.2,0.0,87,0.00,CLR,BKN,0.00,0.0,WeatherDisplay:10.37,2013-09-27 03:45:00,
2013-09-26 22:50:00,72.1,68.1,30.09,ENE,68,0.0,0.0,87,0.00,CLR,BKN,0.00,0.0,WeatherDisplay:10.37,2013-09-27 03:50:00,
2013-09-26 22:55:00,72.0,67.9,30.09,NE,45,1.2,0.0,87,0.00,CLR,BKN,0.00,0.0,WeatherDisplay:10.37,2013-09-27 03:55:00,
2013-09-26 23:00:00,71.8,67.7,30.06,East,90,0.0,0.0,87,0.00,CLR,BKN,0.00,0.0,WeatherDisplay:10.37,2013-09-27 04:00:00,
2013-09-26 23:01:00,71.8,67.7,30.06,East,90,0.0,0.0,87,0.00,CLR,BKN,0.00,0.0,WeatherDisplay:10.37,2013-09-27 04:01:00,
2013-09-26 23:06:00,71.6,67.5,30.06,East,90,1.2,0.0,87,0.00,BKN,,0.00,0.0,WeatherDisplay:10.37,2013-09-27 04:06:00,
2013-09-26 23:11:00,71.4,67.7,30.06,ENE,68,0.0,0.0,88,0.00,BKN,,0.00,0.0,WeatherDisplay:10.37,2013-09-27 04:11:00,
2013-09-26 23:16:00,71.2,67.5,30.09,ENE,68,0.0,0.0,88,0.00,BKN,,0.00,0.0,WeatherDisplay:10.37,2013-09-27 04:16:00,
2013-09-26 23:21:00,71.1,67.3,30.09,ENE,68,0.0,0.0,88,0.00,BKN,,0.00,0.0,WeatherDisplay:10.37,2013-09-27 04:21:00,
2013-09-26 23:26:00,70.9,67.1,30.09,ENE,68,0.0,0.0,88,0.00,BKN,,0.00,0.0,WeatherDisplay:10.37,2013-09-27 04:26:00,
2013-09-26 23:31:00,70.7,67.0,30.09,ENE,68,0.0,0.0,88,0.00,BKN,,0.00,0.0,WeatherDisplay:10.37,2013-09-27 04:31:00,
2013-09-26 23:36:00,70.7,67.0,30.09,ENE,68,0.0,0.0,88,0.00,BKN,,0.00,0.0,WeatherDisplay:10.37,2013-09-27 04:36:00,
2013-09-26 23:41:00,70.7,67.3,30.09,NE,45,0.0,0.0,89,0.00,BKN,,0.00,0.0,WeatherDisplay:10.37,2013-09-27 04:41:00,
2013-09-26 23:46:00,70.7,67.3,30.09,ENE,68,0.0,0.0,89,0.00,BKN,,0.00,0.0,WeatherDisplay:10.37,2013-09-27 04:46:00,
2013-09-26 23:51:00,70.9,67.8,30.09,East,90,4.6,4.6,90,0.00,BKN,,0.00,0.0,WeatherDisplay:10.37,2013-09-27 04:51:00,
2013-09-26 23:56:00,71.1,68.3,30.09,ENE,68,2.2,2.2,91,0.00,BKN,,0.00,0.0,WeatherDisplay:10.37,2013-09-27 04:56:00,